Location: Cabo di Oristano
(39.8500°N, 8.4333°E)
Time: 00:36:39
(UTC+00:00)

Daily predictions for brighter satellites

Satellite Brightness Start Highest point End
(mag) Time Altitude Azimuth Time Altitude Azimuth Time Altitude Azimuth
SL-16 R/B 4.5 02:43:00 15° SE 02:43:00 15° SE 02:43:52 10° SE
Cosmos 2322 Rocket 3.5 02:51:36 35° ESE 02:51:36 35° ESE 02:54:59 10° SE
Lacrosse 5 3.4 02:56:07 31° ESE 02:56:07 31° ESE 02:58:51 10° ESE
H-2A ROCKET BODY 4.1 02:56:07 35° S 02:56:07 35° S 02:59:54 10° SE
Cosmos 2360 Rocket 3.4 02:56:00 29° NNE 02:58:02 39° ENE 03:03:17 10° SE
Cosmos 2218 Rocket 4.1 03:02:21 10° N 03:08:47 74° E 03:15:06 10° SSE
Cosmos 2333 Rocket 4.2 03:04:46 10° N 03:09:32 26° NE 03:14:17 10° ESE
FENGYUN 3A 4.0 03:05:45 10° NNE 03:10:27 62° NE 03:10:27 62° NE
CZ-4C R/B 3.6 03:10:03 21° NNW 03:15:12 54° NE 03:23:29 10° SE
NOSS 2-2 (D) 4.4 03:16:46 80° NW 03:17:09 89° WSW 03:25:12 10° SSE
USA 308 4.3 03:20:44 35° ENE 03:20:44 35° ENE 03:23:17 10° NE
COSMOS 2455 4.4 03:26:17 21° NNW 03:26:17 21° NNW 03:28:59 10° N
BREEZE M DEB (TANK) 3.7 03:29:26 51° SE 03:29:26 51° SE 03:31:35 10° SE
Cosmos 1953 3.5 03:27:39 28° NNE 03:29:10 40° ENE 03:32:56 10° SSE
ISS -1.4 03:32:54 22° NE 03:32:54 22° NE 03:34:16 10° NE
APEX 4.4 03:32:10 53° NNW 03:32:10 53° NNW 03:36:12 10° NNE
USA 234 3.9 03:26:17 10° NE 03:32:35 50° SE 03:37:12 19° SSW
COSMOS 2487 4.0 03:38:47 33° E 03:38:47 33° E 03:41:26 10° NE
Cosmos 158 Rocket 3.7 03:39:55 78° NW 03:39:55 78° NW 03:44:49 10° NNE
BREEZE-M DEB (TANK) 4.0 03:45:32 18° NE 03:45:32 18° NE 03:46:23 10° ENE
Cosmos 1975 Rocket 3.4 03:42:34 10° S 03:46:57 67° E 03:51:24 10° NNE
ALOS 3.2 03:43:58 10° N 03:46:47 34° NNW 03:46:47 34° NNW
Cosmos 1959 Rocket 4.4 03:43:11 10° NNW 03:49:07 55° W 03:55:06 10° SSW
CZ-4B R/B 4.3 03:49:51 10° N 03:53:31 36° NW 03:53:31 36° NW
METEOR-M 4.0 03:50:40 10° N 03:56:00 74° WNW 04:01:19 10° SSW
Cosmos 2237 4.3 03:56:11 46° WNW 03:57:13 52° WSW 04:02:43 10° S
Atlas Centaur 2 3.9 03:54:12 19° SSW 03:57:42 28° S 04:02:40 10° ESE
Cosmos 2366 rocket 4.2 03:52:24 10° NNW 03:58:25 46° W 04:04:25 10° SSW
SME Rocket 3.7 03:52:43 10° S 03:58:39 47° WSW 03:58:40 47° WSW
USA 276 3.8 04:03:15 24° NNE 04:03:15 24° NNE 04:05:03 10° NE
Cosmos 1833 4.4 04:04:12 40° W 04:05:30 48° WNW 04:10:57 10° NNE
USA 305 3.4 04:05:37 41° NW 04:05:37 41° NW 04:09:38 10° NE
Cosmos 1484 Rocket 3.0 04:02:11 10° N 04:05:22 49° NW 04:05:22 49° NW
SEDSat Delta rocket 4.4 04:05:29 26° SSW 04:06:41 30° S 04:10:41 10° SE
PSLV R/B 3.5 04:04:25 10° N 04:08:43 59° WNW 04:11:01 26° SW
CZ-2C R/B 4.1 04:07:20 10° SE 04:12:25 39° ENE 04:17:35 10° N
Cosmos 2084 3.5 04:10:14 26° NNW 04:12:42 83° NE 04:17:15 10° SE
COSMOS 2428 3.6 04:08:55 10° NNW 04:14:29 51° ENE 04:20:01 10° SE
SL-4 R/B 1.9 04:13:17 43° WNW 04:14:37 77° SW 04:18:37 10° SE
Cosmos 1241 Rocket 4.4 04:09:21 10° SSW 04:15:51 80° WNW 04:22:15 10° NNE
NOSS 3-3 (A) 4.0 04:10:57 10° SSW 04:16:30 74° ESE 04:22:46 10° NE
NOSS 3-3 (C) 4.0 04:11:02 10° SSW 04:16:34 73° ESE 04:22:50 10° NE
Cosmos 304 Rocket 4.2 04:17:27 35° W 04:18:16 37° WSW 04:22:40 10° SSW
CZ-2C R/B 4.2 04:16:53 10° NNW 04:18:12 15° NNW 04:18:12 15° NNW
Cosmos 44 Rocket 4.4 04:15:44 10° NNW 04:20:28 43° NE 04:25:03 10° SE
Cosmos 2333 4.1 04:14:47 10° NNW 04:20:34 80° WSW 04:26:21 10° SSE
BREEZE-M R/B 3.9 04:19:27 16° S 04:20:46 24° SE 04:22:52 10° E
SL-16 R/B 4.1 04:25:00 12° SW 04:25:00 12° SW 04:25:35 10° SW
ASTRO E2 4.5 04:24:22 16° SSW 04:26:18 22° S 04:29:25 10° ESE
Nadezhda 3 Rocket 4.0 04:23:50 10° SSW 04:29:50 56° W 04:35:54 10° N
Cosmos 1626 3.9 04:33:47 16° NW 04:33:47 16° NW 04:34:57 10° NNW
Meteor 1-16 Rocket 4.5 04:27:16 10° NNW 04:32:13 38° W 04:37:05 10° SSW
YAOGAN 6 2.6 04:28:57 10° NNE 04:32:31 83° ESE 04:36:06 10° S
Cosmos 2322 Rocket 3.4 04:33:33 20° WSW 04:33:33 20° WSW 04:37:00 10° SW
USA 307 3.9 04:34:36 24° WNW 04:36:00 29° NNW 04:39:42 10° NNE
Lacrosse 5 3.0 04:35:23 21° WSW 04:36:30 23° WSW 04:40:26 10° S
USA 306 4.0 04:35:45 22° WNW 04:37:11 27° NNW 04:40:52 10° NNE
Cosmos 2219 Rocket 2.1 04:32:14 10° NNW 04:37:55 82° WSW 04:43:36 10° SSE
SJ-12 3.8 04:34:41 10° N 04:38:45 78° WNW 04:42:48 10° SSW
Cosmos 1818 3.5 04:33:34 10° NNW 04:39:05 87° WSW 04:44:31 10° SSE
Cosmos 2360 Rocket 3.0 04:37:54 14° NW 04:41:49 29° WSW 04:46:37 10° SSW
Cosmos 1821 Rocket 4.2 04:37:01 10° NNW 04:42:48 44° W 04:48:31 10° SSW
Cosmos 2227 Rocket 4.5 04:39:10 10° SSE 04:43:54 28° ESE 04:48:41 10° NE
Cosmos 1867 3.7 04:39:37 10° SSW 04:45:03 81° ESE 04:50:34 10° NNE
Cosmos 1025 Rocket 3.4 04:43:00 10° SSW 04:47:04 40° WNW 04:51:08 10° N
Cosmos 2237 Rocket 3.8 04:43:52 10° N 04:49:03 35° ENE 04:54:10 10° SE
Meteor 2-20 4.4 04:44:10 10° S 04:50:16 83° W 04:56:23 10° N
ADEOS 3.9 04:45:19 10° NNE 04:50:33 71° ESE 04:55:45 10° S
ERBS 2.8 04:48:44 20° W 04:50:34 38° NW 04:53:39 10° NNE
Cosmos 923 Rocket 4.5 04:45:56 10° SW 04:50:43 37° WNW 04:55:33 10° N
Cosmos 1934 Rocket 3.9 04:44:53 10° N 04:51:00 75° W 04:57:10 10° S
Envisat 2.9 04:46:35 10° N 04:51:40 72° WNW 04:56:42 10° SSW
Cosmos 1680 Rocket 3.7 04:47:01 10° SW 04:52:04 48° WNW 04:57:11 10° N
Cosmos 2056 Rocket 3.8 04:47:32 10° NNW 04:52:45 71° ENE 04:58:01 10° SSE
Cosmos 2333 Rocket 2.5 04:48:31 10° NW 04:54:02 48° WSW 04:59:31 10° S
CZ-4B R/B 4.5 04:51:09 10° NNE 04:55:18 42° E 04:59:15 10° S
USA 308 4.3 04:56:49 14° WNW 04:59:21 23° NNW 05:02:46 10° NNE
Cosmos 1455 4.0 04:59:07 10° N 05:02:33 34° ENE 05:05:57 10° SE
CZ-4C R/B 3.6 04:56:47 10° NW 05:03:50 39° WSW 05:11:37 10° S
Cosmos 1953 4.0 05:03:37 11° WNW 05:05:06 13° W 05:06:57 10° WSW
H-2A R/B 3.2 05:02:11 10° N 05:05:39 36° WNW 05:09:04 10° SW
Cosmos 1441 Rocket 4.5 05:03:55 10° WSW 05:06:41 19° WNW 05:09:27 10° NNW
Cosmos 1536 Rocket 3.6 05:03:08 10° SSW 05:07:26 56° W 05:11:45 10° N
ISS -1.9 05:05:54 11° WNW 05:08:05 18° NNW 05:10:33 10° NNE
Meteor 1-31 Rocket 3.1 05:04:52 10° N 05:08:27 41° WNW 05:12:00 10° SW
Meteor 2-5 Rocket 3.9 05:04:08 10° SSW 05:09:28 50° WNW 05:14:55 10° N
COSMO-SKYMED 1 2.8 05:05:44 10° S 05:09:54 47° W 05:14:07 10° NNW
Cosmos 1300 3.6 05:07:43 10° NNW 05:10:58 27° W 05:14:12 10° SSW
CZ-4B R/B 4.3 05:08:51 10° N 05:12:16 36° WNW 05:15:47 10° SW
COSMOS 2487 4.4 05:12:03 10° W 05:13:14 11° WNW 05:14:26 10° NW
Cosmos 1455 Rocket 4.4 05:10:28 10° NW 05:13:30 18° W 05:16:30 10° SW
Cosmos 2322 4.3 05:10:19 10° NW 05:15:27 36° WSW 05:20:32 10° S
USA 234 3.6 05:09:18 10° NE 05:15:33 50° NW 05:21:48 10° WSW
NOAA 11 4.3 05:15:00 10° NNE 05:20:27 89° ESE 05:25:52 10° SSW
Cosmos 1371 Rocket 4.2 05:19:37 10° NNW 05:24:39 52° WSW 05:29:39 10° S
Meteor 2-10 Rocket 3.7 05:20:28 10° NNW 05:25:15 45° W 05:30:00 10° SSW
Cosmos 1606 Rocket 4.3 05:21:35 10° N 05:25:55 60° E 05:30:11 10° SSE
